Weather reports worldwide

Advertisment
Gemini, Netherlands (6214): temperature & dewpoint: 10.10.2019 05:00:00 - 16.10.2019 05:00:00 (CEST)Gemini, Netherlands (6214): wind speed & gusts: 10.10.2019 05:00:00 - 16.10.2019 05:00:00 (CEST)Gemini, Netherlands (6214): wind direction: 10.10.2019 05:00:00 - 16.10.2019 05:00:00 (CEST)Gemini, Netherlands (6214): reduced air pressure: 10.10.2019 05:00:00 - 16.10.2019 05:00:00 (CEST)Gemini, Netherlands (6214): visibility: 10.10.2019 05:00:00 - 16.10.2019 05:00:00 (CEST)
Date & Time tt [°C] td [°C] ff [km/h] ff [kn] fx [km/h] fx [kn] dd ppp [hPa] vv [km]
16.10.2019 05:00:00 14,2 9,2 15 8 22 12 W 1006,0 10
16.10.2019 04:00:00 14,1 11,3 21 11 25 14 W 1006,1 10
16.10.2019 03:00:00 13,6 13,0 18 10 29 16 SW 1006,1 8
16.10.2019 02:00:00 14,4 12,5 11 6 14 8 WSW 1005,9 10
16.10.2019 01:00:00 14,1 12,8 9 5 14 8 WSW 1006,1 10
16.10.2019 00:00:00 14,2 12,3 16 9 22 12 W 1006,0 10
15.10.2019 23:00:00 14,5 13,2 18 10 22 12 SW 1006,1 10
15.10.2019 22:00:00 14,4 13,3 18 10 22 12 SW 1005,9 10
15.10.2019 21:00:00 14,8 13,2 13 7 25 14 WSW 1005,7 10
15.10.2019 20:00:00 14,9 13,0 22 12 25 14 SW 1005,6 10
15.10.2019 19:00:00 14,9 13,5 21 11 29 16 SW 1005,1 10
15.10.2019 18:00:00 14,8 13,4 28 15 32 18 SW 1004,8 10
15.10.2019 17:00:00 15,1 13,4 28 15 32 18 SW 1004,8 10
15.10.2019 16:00:00 15,2 13,4 29 16 36 19 SW 1004,6 10
15.10.2019 15:00:00 15,2 13,2 34 18 40 21 SW 1004,9 10
15.10.2019 14:00:00 15,2 13,3 39 21 43 23 SSW 1004,7 10
15.10.2019 13:00:00 14,9 13,4 31 17 40 21 SW 1004,6 10
15.10.2019 12:00:00 15,1 13,3 29 16 36 19 SW 1004,4 10
15.10.2019 11:00:00 15,3 13,2 28 15 32 18 SW 1004,4 10
15.10.2019 10:00:00 15,3 13,2 29 16 32 18 SW 1003,9 10
15.10.2019 09:00:00 15,3 13,5 24 13 32 18 SW 1003,6 10
15.10.2019 08:00:00 15,4 13,6 28 15 36 19 SW 1003,3 10
15.10.2019 07:00:00 16,0 13,6 35 19 40 21 SSW 1003,2 10
15.10.2019 06:00:00 15,8 13,6 28 15 40 21 S 1002,8 10
15.10.2019 05:00:00 15,7 13,7 35 19 40 21 S 1003,1 10
15.10.2019 04:00:00 15,3 13,7 28 15 36 19 S 1003,3 10
15.10.2019 03:00:00 15,1 13,5 31 17 40 21 SSE 1003,2 10
15.10.2019 02:00:00 15,2 13,2 26 14 32 18 SSE 1004,0 10
15.10.2019 01:00:00 15,3 13,1 29 16 43 23 SSE 1005,8 10
15.10.2019 00:00:00 15,0 12,7 35 19 50 27 SSE 1006,3 10
14.10.2019 23:00:00 14,8 12,3 44 24 54 29 SE 1006,0 10
14.10.2019 22:00:00 15,0 11,9 48 26 54 29 SE 1007,2 10
14.10.2019 21:00:00 14,6 11,4 44 24 50 27 ESE 1007,8 10
14.10.2019 20:00:00 14,4 11,4 55 30 58 31 ESE 1008,6 10
14.10.2019 19:00:00 13,9 11,0 42 23 50 27 ESE 1008,7 10
14.10.2019 18:00:00 13,8 10,4 31 17 40 21 E 1010,1 10
14.10.2019 17:00:00 13,3 9,5 16 9 29 16 ESE 1011,0 10
14.10.2019 16:00:00 13,7 10,6 15 8 18 10 SE 1012,4 10
14.10.2019 15:00:00 14,0 10,8 5 3 11 6 SE 1012,7 10
14.10.2019 14:00:00 14,1 9,7 9 5 14 8 SSW 1013,0 10
14.10.2019 13:00:00 14,2 9,6 9 5 11 6 SSW 1013,4 10
14.10.2019 12:00:00 14,2 8,9 8 4 14 8 SW 1013,6 10
14.10.2019 11:00:00 14,3 9,2 13 7 18 10 SW 1013,6 10
14.10.2019 10:00:00 14,3 9,2 9 5 22 12 WSW 1013,2 10
14.10.2019 09:00:00 14,3 10,1 22 12 25 14 W 1012,5 10
14.10.2019 08:00:00 14,3 10,6 24 13 29 16 W 1012,1 10
14.10.2019 07:00:00 14,5 10,5 16 9 25 14 WNW 1011,2 10
14.10.2019 06:00:00 14,6 9,9 21 11 32 18 WNW 1010,6 10
14.10.2019 05:00:00 14,5 11,0 35 19 47 25 W 1010,2 10
14.10.2019 04:00:00 14,7 10,6 46 25 50 27 W 1009,7 10
14.10.2019 03:00:00 14,7 10,6 50 27 58 31 W 1009,0 10
14.10.2019 02:00:00 15,0 10,8 54 29 65 35 W 1008,2 10
14.10.2019 01:00:00 15,3 10,0 65 35 72 39 W 1007,2 10
14.10.2019 00:00:00 15,6 11,0 63 34 65 35 W 1006,6 10
13.10.2019 23:00:00 16,1 12,7 57 31 61 33 WSW 1005,4 10
13.10.2019 22:00:00 16,2 13,5 57 31 61 33 WSW 1004,4 10
13.10.2019 21:00:00 16,6 14,1 63 34 68 37 WSW 1003,7 10
13.10.2019 20:00:00 17,1 14,4 65 35 65 35 SW 1003,0 10
13.10.2019 19:00:00 16,1 14,7 52 28 54 29 SW 1002,5 7
13.10.2019 18:00:00 16,6 15,6 39 21 50 27 SSW 1002,1 9
13.10.2019 17:00:00 16,4 15,4 26 14 32 18 SSW 1002,5 10
13.10.2019 16:00:00 15,9 15,3 29 16 36 19 S 1002,9 6
13.10.2019 15:00:00 15,2 14,6 29 16 36 19 S 1003,6 4,4
13.10.2019 14:00:00 14,4 13,8 22 12 32 18 S 1004,5 3,1
13.10.2019 13:00:00 13,5 13,0 24 13 29 16 SSE 1005,3 2,1
13.10.2019 12:00:00 12,6 12,2 22 12 32 18 SSE 1006,4 2,1
13.10.2019 11:00:00 12,5 11,3 31 17 32 18 ESE 1006,9 6
13.10.2019 10:00:00 12,2 11,0 21 11 29 16 ESE 1007,5 9
13.10.2019 09:00:00 12,3 9,9 21 11 25 14 SE 1007,9 10
13.10.2019 08:00:00 12,4 9,8 16 9 25 14 SSE 1008,2 10
13.10.2019 07:00:00 12,3 9,9 22 12 25 14 S 1008,7 10
13.10.2019 06:00:00 12,2 9,6 21 11 25 14 S 1008,4 10
13.10.2019 05:00:00 12,4 10,7 21 11 29 16 SSW 1008,9 10
13.10.2019 04:00:00 12,6 10,9 28 15 32 18 SSW 1009,1 10
13.10.2019 03:00:00 12,8 11,2 26 14 32 18 SW 1009,2 10
13.10.2019 02:00:00 13,1 11,1 28 15 36 19 SW 1009,4 10
13.10.2019 01:00:00 13,4 11,1 28 15 32 18 SW 1009,7 10
13.10.2019 00:00:00 13,5 11,4 21 11 32 18 SW 1009,7 5
12.10.2019 23:00:00 13,8 11,2 18 10 32 18 WSW 1009,6 10
12.10.2019 22:00:00 14,2 10,5 21 11 29 16 W 1009,1 10
12.10.2019 21:00:00 13,0 9,7 18 10 29 16 WSW 1008,7 10
12.10.2019 20:00:00 14,4 10,0 22 12 29 16 W 1008,6 10
12.10.2019 19:00:00 14,5 10,1 24 13 32 18 W 1008,2 10
12.10.2019 18:00:00 14,5 9,5 24 13 36 19 W 1008,3 10
12.10.2019 17:00:00 14,6 9,4 29 16 40 21 W 1008,0 10
12.10.2019 16:00:00 14,7 8,7 31 17 43 23 W 1008,3 10
12.10.2019 15:00:00 14,8 8,6 39 21 43 23 W 1008,1 10
12.10.2019 14:00:00 14,8 8,6 35 19 40 21 W 1007,7 30
12.10.2019 13:00:00 15,0 9,6 41 22 43 23 W 1007,1 -
12.10.2019 12:00:00 14,8 9,9 41 22 40 21 W 1006,5 -
12.10.2019 11:00:00 14,2 10,4 34 18 40 21 W 1005,7 -
12.10.2019 10:00:00 14,6 10,1 35 19 50 27 W 1005,0 -
12.10.2019 09:00:00 13,8 11,0 52 28 50 27 WSW 1005,3 -
12.10.2019 08:00:00 13,6 10,8 44 24 47 25 WSW 1004,4 -
12.10.2019 07:00:00 13,4 9,4 37 20 40 21 WSW 1004,1 -
12.10.2019 06:00:00 13,3 10,1 26 14 40 21 WSW 1003,7 -
12.10.2019 05:00:00 13,3 9,0 44 24 50 27 W 1003,5 -
12.10.2019 04:00:00 14,0 9,5 44 24 50 27 W 1003,6 -
12.10.2019 03:00:00 14,4 8,5 29 16 43 23 W 1003,1 -
12.10.2019 02:00:00 15,2 10,0 35 19 43 23 W 1003,1 -
12.10.2019 01:00:00 15,4 9,2 39 21 43 23 W 1002,5 -
12.10.2019 00:00:00 15,5 11,5 41 22 47 25 W 1002,1 -
11.10.2019 23:00:00 15,3 13,9 39 21 58 31 W 1000,9 -
11.10.2019 22:00:00 15,6 14,6 59 32 72 39 WSW 1001,4 -
11.10.2019 21:00:00 15,8 14,4 63 34 76 41 WSW 1001,4 -
11.10.2019 20:00:00 15,7 14,3 65 35 68 37 SW 1002,2 -
11.10.2019 19:00:00 15,5 14,0 70 38 76 41 SW 1002,4 -
11.10.2019 18:00:00 15,7 14,0 72 39 76 41 SW 1002,4 -
11.10.2019 17:00:00 15,4 14,0 70 38 79 43 SW 1003,0 -
11.10.2019 16:00:00 15,7 13,7 70 38 72 39 SW 1003,3 -
11.10.2019 15:00:00 15,4 14,1 63 34 76 41 SW 1003,5 -
11.10.2019 14:00:00 15,6 14,0 74 40 83 45 SW 1004,3 -
11.10.2019 13:00:00 14,9 13,1 50 27 58 31 SW 1004,1 -
11.10.2019 12:00:00 15,9 13,4 55 30 65 35 WSW 1005,0 -
11.10.2019 11:00:00 16,0 12,9 57 31 65 35 WSW 1005,5 -
11.10.2019 10:00:00 15,9 13,8 55 30 54 29 WSW 1005,4 -
11.10.2019 09:00:00 15,9 13,4 43 23 58 31 WSW 1005,3 -
11.10.2019 08:00:00 16,0 13,6 52 28 54 29 WSW 1005,0 -
11.10.2019 07:00:00 16,2 13,0 59 32 68 37 W 1005,0 -
11.10.2019 06:00:00 16,2 13,1 59 32 65 35 W 1005,4 -
11.10.2019 05:00:00 15,8 13,7 67 36 72 39 WSW 1005,3 -
11.10.2019 04:00:00 14,3 13,3 57 31 65 35 SW 1005,2 -
11.10.2019 03:00:00 15,1 13,1 54 29 68 37 WSW 1006,1 -
11.10.2019 02:00:00 15,6 12,5 59 32 65 35 WSW 1006,9 -
11.10.2019 01:00:00 15,4 12,0 50 27 61 33 SW 1007,0 -
11.10.2019 00:00:00 14,0 12,0 54 29 61 33 WSW 1007,8 -
10.10.2019 23:00:00 15,0 10,3 54 29 58 31 WSW 1008,6 -
10.10.2019 22:00:00 14,5 9,4 37 20 54 29 WSW 1008,8 -
10.10.2019 21:00:00 14,7 8,8 52 28 50 27 W 1009,2 -
10.10.2019 20:00:00 14,4 8,4 46 25 54 29 W 1009,3 -
10.10.2019 19:00:00 14,2 8,8 46 25 58 31 W 1008,9 -
10.10.2019 18:00:00 13,9 8,8 48 26 54 29 W 1008,5 -
10.10.2019 17:00:00 14,2 8,5 50 27 54 29 W 1008,0 -
10.10.2019 16:00:00 14,1 8,5 50 27 54 29 W 1008,0 -
10.10.2019 15:00:00 14,3 8,7 48 26 54 29 W 1007,7 -
10.10.2019 14:00:00 14,2 7,3 52 28 54 29 W 1006,9 -
10.10.2019 13:00:00 14,4 7,6 48 26 54 29 W 1006,5 -
10.10.2019 12:00:00 14,3 7,1 42 23 43 23 W 1005,7 -
10.10.2019 11:00:00 11,6 8,4 41 22 47 25 W 1005,0 -
10.10.2019 10:00:00 14,1 8,6 48 26 50 27 W 1004,4 -
10.10.2019 09:00:00 13,9 8,3 41 22 47 25 W 1004,0 -
10.10.2019 08:00:00 13,9 7,6 44 24 47 25 W 1003,3 -
10.10.2019 07:00:00 13,9 7,6 42 23 54 29 W 1003,0 -
10.10.2019 06:00:00 14,0 7,1 42 23 47 25 W 1002,4 -
10.10.2019 05:00:00 13,5 7,9 28 15 47 25 WNW 1002,1 -

tt = temperature
td = dewpoint
ff = wind speed
fx = gusts
dd = wind direction
ppp = reduced air pressure
vv = visibility

Next stations